Location: Observatory
(52.1446°N, 0.4624°W)
Time: 15:55:22
(UTC+00:00)

ISS - Pass Details

Date: 12 November 2018
Orbit: 401 x 408 km, 51.6° (Epoch: 20 November)

Event Time Altitude Azimuth Distance (km) Brightness Sun altitude
Exits shadow 04:51:32 25° 160° (SSE) 860 -2.0 -22.2°
Drops below altitude 10° 04:53:18 10° 138° (SE) 1,460 -0.5 -21.9°
Sets 04:55:29 0° 130° (SE) 2,319 0.8 -21.6°
